GFSMW_prec_cloud_087.txt.gz
Cloud_Cover
100 100 86 10 5 0 0 0 22 17 74 56 90 14 37 94 100 100 100 100 100 100 100 100 100 100 100 100 100 100 100 100 100 100 100 100 100 100 72 85 100 100 100
100 100 100 84 3 0 0 0 7 7 46 26 7 5 31 50 94 66 52 84 98 100 100 100 100 100 100 100 100 100 100 100 100 100 100 100 100 100 100 95 100 100 100
99 96 35 8 0 0 0 0 0 7 98 18 10 7 44 89 79 10 29 87 30 97 88 100 100 100 100 100 100 100 100 100 100 100 100 100 100 90 100 100 99 100 100
100 100 16 4 0 0 0 0 0 1 84 28 5 56 16 6 18 48 100 100 81 95 90 100 100 100 100 100 100 100 100 100 100 100 100 100 100 100 100 100 100 100 100
100 100 7 4 5 0 0 0 0 6 69 54 48 74 94 5 12 60 91 100 99 88 92 100 100 100 100 100 100 100 100 100 100 100 100 100 100 100 100 100 100 100 100
96 12 23 14 65 15 0 0 4 49 99 61 96 94 22 1 2 14 100 100 95 100 100 100 100 100 100 100 100 100 100 100 100 100 100 100 100 100 100 100 100 100 100
22 38 73 5 2 34 0 20 24 85 90 88 97 79 6 0 2 52 92 100 100 100 100 100 100 100 100 100 100 100 100 100 100 100 100 100 100 100 100 100 100 100 100
26 3 27 0 0 0 0 50 100 100 100 100 91 34 13 0 9 100 89 92 100 100 100 100 100 100 100 100 100 100 100 100 100 100 100 100 100 100 100 100 100 100 100
5 7 0 0 0 3 36 82 100 100 100 100 100 27 21 14 34 100 55 99 88 95 100 100 100 100 100 100 100 100 100 100 100 100 100 100 100 100 100 100 100 100 96
2 77 11 51 71 52 98 100 100 100 100 100 99 28 27 74 97 100 78 100 98 97 100 100 100 100 100 100 100 100 100 100 100 100 100 100 100 100 100 100 100 97 95
17 100 94 43 100 99 100 100 100 100 100 100 98 82 99 100 41 30 95 100 100 97 100 100 100 100 100 100 100 100 100 100 100 100 100 100 100 100 100 100 100 67 94
46 100 100 100 100 100 100 100 100 100 100 100 100 100 100 100 100 100 100 100 100 93 100 100 100 100 100 100 100 100 100 100 100 100 100 100 100 100 100 100 100 100 99
74 100 100 100 100 100 100 100 100 100 100 100 100 100 93 100 100 100 89 100 100 100 100 100 100 100 100 100 100 100 100 100 100 100 100 100 100 100 100 100 100 100 100
95 100 100 100 100 100 100 100 100 100 100 100 100 100 100 100 100 65 100 100 100 100 100 100 95 100 100 100 100 100 100 100 100 100 100 100 100 100 100 100 100 100 100
93 100 100 100 100 100 100 100 100 100 100 100 100 100 100 100 100 100 100 100 100 100 100 100 100 100 100 100 100 100 100 100 100 100 100 100 100 100 100 100 100 100 100
100 100 100 100 100 100 100 100 100 100 100 100 100 100 100 100 100 100 100 100 100 100 100 100 100 100 100 100 100 100 100 100 100 100 100 100 100 100 100 100 100 100 100
100 100 100 100 100 100 100 100 100 100 100 100 100 100 100 100 100 100 100 100 100 100 100 100 100 100 100 100 100 100 100 100 100 100 100 100 100 100 100 100 100 100 100
100 100 100 100 100 100 100 100 100 100 100 100 100 100 100 100 100 100 100 100 100 100 100 100 100 100 100 100 100 98 100 100 100 100 100 100 100 100 100 100 100 100 100
100 100 100 100 100 100 100 100 100 100 100 100 100 100 100 100 100 100 100 100 100 100 100 100 100 100 100 100 100 100 100 100 100 100 100 100 100 100 100 100 100 100 100
100 100 100 100 100 100 100 100 100 100 100 100 100 100 100 100 100 100 100 100 100 100 100 100 100 100 100 100 100 100 100 100 100 100 100 100 100 100 100 100 100 100 100
100 100 100 100 100 100 100 100 100 100 100 100 100 100 100 100 100 100 100 100 100 100 100 100 100 100 100 100 100 100 100 100 100 100 100 100 100 100 100 96 96 100 100
100 100 100 100 100 100 100 100 100 100 100 100 100 100 100 100 100 100 100 100 100 100 100 100 100 100 100 100 100 100 100 100 100 100 100 100 100 91 100 100 100 100 100
100 100 100 100 100 100 100 100 100 100 100 100 100 100 100 100 100 100 100 100 100 100 100 100 100 100 100 100 100 100 100 100 100 100 100 100 100 100 100 100 100 100 100
100 100 100 100 100 100 100 100 100 100 100 100 100 100 100 100 100 100 100 100 100 100 100 100 100 100 100 100 100 100 100 100 100 100 83 86 98 100 99 71 26 54 40
100 100 100 100 100 100 100 100 100 100 100 100 100 100 100 100 100 100 100 100 100 100 100 100 100 100 100 100 100 100 100 100 100 100 100 100 100 94 92 29 5 5 5
100 100 100 100 100 100 100 100 100 100 100 100 100 100 100 100 100 100 100 100 100 100 100 100 100 100 100 100 98 100 100 100 100 100 100 100 98 55 5 5 5 5 27

GFSMW_prec_cloud_093.txt.gz
Cloud_Cover
89 100 29 100 100 95 83 88 100 100 100 100 100 100 100 34 17 2 2 88 100 33 81 76 100 100 100 100 100 100 100 100 100 100 100 100 100 100 100 100 100 100 100
11 100 100 100 100 100 100 100 100 100 100 100 100 100 97 10 1 24 99 100 41 16 12 7 61 100 100 100 100 100 100 100 100 100 100 100 100 100 100 100 100 100 100
100 92 100 100 100 100 100 100 100 100 100 56 100 100 79 6 10 16 63 100 100 52 12 16 44 80 98 98 90 100 100 100 100 100 100 100 100 100 100 100 100 100 100
67 100 100 100 100 100 100 93 100 100 100 100 100 100 100 46 21 2 5 62 100 100 78 51 100 39 64 51 100 100 100 100 100 100 100 100 100 100 100 100 100 100 100
96 100 100 100 84 53 35 98 100 100 100 100 100 71 56 5 5 16 5 11 71 37 45 48 97 67 70 100 99 100 99 100 100 100 100 100 100 100 100 100 100 100 100
100 100 100 100 100 100 99 100 100 100 100 98 82 63 43 1 2 79 5 10 81 84 76 75 100 77 95 97 100 96 100 100 100 100 100 100 100 100 100 100 100 100 100
100 100 100 100 100 100 92 100 100 100 100 98 7 7 0 24 2 70 12 24 34 100 96 100 99 100 95 99 100 100 100 100 100 100 100 100 100 100 100 100 100 100 100
98 99 100 100 100 100 100 98 100 100 100 100 64 100 100 73 5 99 8 16 1 31 98 100 100 100 100 100 100 100 100 100 100 100 100 100 100 100 100 100 100 100 100
100 100 100 100 100 100 100 94 9 69 73 53 38 100 100 100 67 71 12 17 5 60 96 100 100 100 100 100 100 100 100 100 100 100 100 100 100 100 100 100 100 100 100
100 100 100 100 100 100 99 100 100 100 100 100 100 100 100 100 93 84 58 5 100 100 100 100 100 100 100 100 100 100 100 100 100 100 100 100 100 100 100 100 100 100 100
100 100 100 100 100 100 93 88 95 100 100 100 100 100 100 100 99 28 21 9 96 97 96 100 100 100 100 100 100 100 100 100 100 100 100 100 100 100 100 100 100 100 100
100 100 100 100 100 100 100 100 97 38 99 100 68 90 100 100 86 73 83 99 74 53 89 100 95 100 100 100 100 100 100 100 100 100 100 100 100 100 100 100 100 100 100
100 100 100 100 100 100 100 100 100 100 82 75 72 100 100 100 100 100 100 100 100 100 100 53 99 93 100 100 100 100 100 100 100 100 100 100 100 100 100 100 100 100 100
100 100 100 100 100 100 100 100 100 100 100 100 100 100 100 100 100 100 100 100 100 100 100 100 100 100 100 100 100 100 100 100 100 100 100 100 100 100 100 100 100 100 100
100 100 100 100 100 100 100 100 100 100 100 100 100 100 100 100 100 100 100 100 100 100 100 100 100 100 100 100 100 100 100 100 100 100 100 100 100 100 100 100 100 100 100
100 100 100 100 100 100 100 100 100 100 100 100 100 100 100 100 100 100 100 100 100 100 100 100 100 100 100 100 100 100 100 100 100 100 100 100 100 100 100 100 100 100 100
100 100 100 100 100 100 100 100 100 100 100 100 100 100 100 100 100 100 100 100 100 100 100 100 100 100 100 100 100 100 100 100 100 100 100 100 100 100 100 100 100 100 100
100 100 100 100 100 100 100 100 100 100 100 100 100 100 100 100 100 100 100 100 100 100 100 100 100 100 100 100 100 100 100 100 100 100 100 100 100 100 100 100 100 100 100
100 100 100 99 100 100 100 100 100 100 100 100 100 100 100 100 100 100 100 100 100 100 100 100 100 100 100 100 100 100 100 100 100 100 100 100 100 100 100 100 100 100 100
100 100 97 100 100 100 100 100 100 100 100 100 100 100 100 100 100 100 100 100 100 100 100 100 100 100 100 100 100 100 100 100 100 100 100 100 100 100 100 100 100 100 100
99 92 100 100 100 100 100 100 100 100 100 100 100 100 100 100 100 100 100 100 100 100 100 100 100 100 100 100 100 100 100 100 100 100 100 100 100 100 100 100 100 100 100
84 100 100 100 100 100 100 100 100 100 100 100 100 100 100 100 100 100 100 100 100 100 100 100 100 100 100 100 100 100 100 100 100 100 100 100 100 100 100 100 100 100 100
100 100 100 100 99 100 100 100 100 100 100 100 100 100 100 100 100 100 100 100 100 100 100 100 100 100 100 100 100 100 100 100 100 100 100 100 100 100 100 100 100 100 100
100 100 100 98 100 100 100 100 100 100 100 100 100 100 100 100 100 100 100 100 100 100 100 100 100 100 100 100 100 100 100 100 100 100 100 100 100 100 100 100 100 100 100
100 100 100 99 100 100 100 100 100 100 100 100 100 100 100 100 100 100 100 100 100 100 100 100 100 100 100 100 100 100 100 100 100 100 100 100 100 100 100 100 100 100 100
100 100 100 100 100 100 100 100 100 100 100 100 100 100 100 100 100 100 100 100 100 100 100 100 100 100 100 100 100 100 100 100 100 100 100 100 100 100 100 100 100 100 100

GFSMW_prec_cloud_096.txt.gz
Cloud_Cover
0 0 1 5 5 100 100 5 100 100 100 100 100 100 100 100 98 100 100 95 15 27 31 16 54 94 100 100 100 100 100 100 100 100 100 100 100 100 100 100 100 100 98
0 3 40 94 5 85 100 28 98 100 100 100 100 97 100 97 100 100 69 100 34 100 98 44 55 99 100 100 100 100 100 100 100 100 100 100 100 100 100 100 100 100 100
4 67 93 97 70 46 100 99 98 100 100 100 100 90 100 100 92 96 100 67 67 89 100 94 28 97 100 100 100 96 100 100 100 100 100 100 100 100 100 100 100 98 100
17 5 69 96 59 6 52 100 100 100 100 100 100 88 100 82 98 93 92 78 100 100 100 100 40 67 88 100 100 100 100 100 100 100 100 100 100 100 100 100 100 100 100
100 100 100 100 100 100 100 100 100 100 100 100 100 44 100 83 96 92 5 6 77 100 100 70 92 100 100 100 100 100 100 100 100 100 100 100 100 100 100 100 100 100 100
100 100 100 94 44 100 100 100 100 100 100 100 46 37 98 86 100 16 97 61 46 91 100 92 82 100 99 58 64 97 100 100 100 100 100 100 100 100 100 100 100 100 100
100 100 100 100 100 100 100 100 100 98 99 93 99 100 100 100 73 66 90 100 96 76 70 99 100 100 82 34 53 100 100 92 92 100 100 100 100 100 100 100 100 100 100
100 100 100 100 100 100 100 100 100 90 98 100 100 100 100 100 100 100 100 100 100 100 100 74 86 100 100 100 90 100 100 98 58 97 100 100 100 100 100 100 100 100 100
100 100 100 100 100 100 100 100 68 100 100 100 100 100 100 100 100 100 99 100 100 47 46 39 98 74 100 100 100 100 96 100 95 100 100 100 100 100 100 100 100 100 100
90 100 100 100 100 100 100 100 100 100 100 100 100 100 100 100 100 100 98 100 41 9 95 25 46 100 100 100 99 100 100 100 100 100 100 100 100 100 100 100 100 100 100
94 100 100 100 100 100 100 100 100 99 100 100 100 100 100 100 100 100 34 86 4 62 100 54 100 100 94 100 100 100 100 100 100 100 100 100 100 100 100 100 100 100 100
100 100 100 100 100 100 100 100 100 100 100 100 100 100 100 100 100 100 100 58 8 100 92 100 100 100 100 100 100 100 100 100 100 100 100 100 100 100 100 100 100 100 100
100 81 100 100 100 100 100 100 100 100 100 100 100 100 100 100 100 100 100 94 79 100 94 100 100 100 96 100 100 100 100 100 100 100 100 100 100 100 100 100 100 100 100
100 100 98 100 100 100 100 100 100 100 100 100 100 100 100 100 100 100 100 100 100 100 100 100 100 100 100 100 100 100 100 100 100 100 100 100 100 100 100 100 100 100 100
100 100 100 100 100 100 100 100 100 100 100 100 100 100 100 100 100 100 100 100 100 100 100 100 100 100 100 100 100 100 100 100 100 100 100 100 100 100 100 100 100 100 100
100 100 100 100 100 100 100 100 100 100 100 100 100 100 100 100 100 100 100 100 100 100 100 100 100 100 100 100 100 100 100 100 100 100 100 100 100 100 100 100 100 100 100
100 100 100 100 100 100 100 100 100 100 100 100 100 100 100 100 100 100 100 100 100 100 100 100 100 100 100 100 100 100 100 100 100 100 100 100 100 100 100 100 100 100 100
100 100 100 100 100 100 100 100 100 100 100 100 100 100 100 100 100 100 100 100 100 100 100 100 100 100 100 100 100 100 100 100 100 100 100 100 100 100 100 100 100 100 100
100 100 100 100 100 100 100 100 100 100 100 100 100 100 100 100 100 100 100 100 100 100 100 100 100 100 100 100 100 100 100 100 100 100 100 100 100 100 100 100 100 100 100
100 100 100 100 100 100 100 100 100 100 100 100 100 100 100 100 100 100 100 100 100 100 100 100 100 100 100 100 100 100 100 100 100 100 100 100 100 100 100 100 100 100 100
100 100 100 100 100 100 100 100 100 100 100 100 100 100 100 100 100 100 100 100 100 100 100 100 100 100 100 100 100 100 100 100 100 100 100 100 100 100 100 100 100 100 100
100 100 100 100 100 100 99 99 100 100 100 100 100 100 100 100 100 100 100 100 100 100 100 100 100 100 100 100 100 100 100 100 100 100 100 100 100 100 100 100 100 100 98
100 100 100 100 100 100 100 100 100 100 100 100 100 100 100 100 100 100 100 100 100 100 100 100 100 100 100 100 100 100 100 100 100 100 100 100 100 100 100 100 100 100 100
95 100 100 100 100 100 100 100 100 100 100 100 100 100 100 100 100 100 100 100 100 100 100 100 100 100 100 100 100 100 100 100 100 100 100 100 100 100 100 100 100 100 100
100 100 100 100 100 100 100 100 100 100 100 100 100 100 100 100 100 100 100 100 100 100 100 100 100 100 100 100 100 100 100 100 100 100 100 100 100 100 100 100 100 100 100
100 100 100 100 100 100 100 100 100 98 100 100 100 100 100 100 100 100 100 100 100 100 100 100 100 100 100 100 100 100 100 100 100 100 100 100 100 100 100 100 100 100 100

GFSMW_prec_cloud_102.txt.gz
Cloud_Cover
4 5 6 31 100 100 92 5 4 3 28 94 100 100 100 100 100 100 100 87 100 100 100 100 100 100 100 100 100 100 100 100 100 95 100 100 100 100 100 100 100 100 100
0 5 45 98 96 13 4 9 5 2 18 7 86 92 100 100 100 100 99 100 100 100 100 100 100 100 100 100 100 100 100 100 100 100 100 100 100 100 100 100 100 100 100
0 4 3 4 0 0 0 12 4 0 0 0 65 100 90 100 100 100 100 100 100 100 100 100 100 100 100 96 100 100 100 100 100 100 100 100 100 100 100 100 100 100 100
0 1 0 0 0 0 8 1 0 35 6 22 66 100 90 47 100 100 100 100 100 100 100 100 100 100 100 100 100 100 100 100 100 100 100 100 100 84 100 100 100 100 100
1 0 0 0 0 3 39 59 44 52 2 64 18 41 53 24 66 100 100 100 100 100 100 100 100 100 96 100 100 100 100 100 100 100 100 100 100 100 100 100 100 100 100
0 0 1 0 11 38 32 60 89 70 72 96 92 94 98 96 33 100 100 100 100 100 100 100 100 100 98 100 100 100 100 100 100 100 100 100 100 100 100 100 100 100 100
0 0 12 38 70 94 96 77 100 100 100 88 95 98 73 88 22 100 100 100 100 100 100 82 100 100 100 81 79 99 100 100 100 100 100 100 100 100 100 100 100 100 100
5 14 100 100 100 100 100 100 100 100 97 100 100 100 100 42 29 100 100 100 100 100 100 100 100 100 100 100 100 68 100 100 100 100 100 100 100 100 100 100 100 100 100
5 32 87 100 100 100 100 100 100 100 100 100 100 100 100 95 98 85 28 100 100 100 100 100 100 100 100 100 90 100 100 100 100 100 100 81 90 100 100 100 100 100 100
82 93 100 100 100 100 100 100 100 100 100 100 100 100 100 100 90 100 100 100 100 100 100 100 98 59 76 54 100 100 100 100 100 100 100 100 90 100 100 100 100 100 100
100 100 100 100 100 100 100 100 100 100 100 100 100 100 100 100 100 100 100 100 100 100 100 100 100 86 88 100 100 100 92 75 88 94 100 100 95 100 100 100 100 100 100
100 100 100 100 100 100 100 100 100 100 100 100 100 100 100 100 100 100 100 100 100 100 100 100 100 100 100 100 100 88 41 82 52 100 100 92 100 100 100 100 100 100 100
100 100 100 100 100 100 100 100 100 100 100 100 100 100 100 100 100 100 100 100 100 100 100 100 100 100 95 100 90 48 98 100 100 100 100 100 100 100 100 100 100 100 100
100 100 100 100 100 100 100 100 100 100 100 100 100 100 100 100 100 100 100 100 100 100 100 100 100 89 100 99 94 100 100 100 100 100 100 100 100 100 100 100 100 100 100
100 100 100 100 100 100 100 100 100 100 100 100 100 100 100 100 100 100 100 100 100 100 100 100 100 100 100 94 98 100 100 100 100 100 100 100 100 100 100 100 100 100 100
100 100 100 100 100 100 100 100 100 100 100 100 100 100 100 100 100 100 100 100 100 100 100 100 100 100 100 100 100 100 100 100 100 100 100 100 100 100 100 100 100 100 100
100 100 100 100 100 100 100 100 100 100 100 100 100 100 100 100 100 100 100 100 100 100 100 100 100 100 100 100 100 100 100 100 100 100 100 100 100 100 100 100 100 100 100
100 100 100 100 100 100 100 100 100 100 100 100 100 100 100 100 100 100 100 100 100 100 100 100 100 100 100 100 100 100 100 100 100 100 100 100 100 100 100 100 100 100 100
100 100 100 100 100 100 100 100 100 100 100 100 100 100 100 100 100 100 100 100 100 100 100 100 100 100 100 100 100 100 100 100 100 100 100 100 100 100 100 100 100 100 100
100 100 100 100 100 100 100 100 100 100 100 100 100 100 100 100 100 100 100 100 100 100 100 100 100 100 100 100 100 100 100 100 100 100 100 100 100 100 100 100 100 100 100
100 100 100 100 100 100 100 100 100 100 100 100 100 100 100 100 100 100 100 100 100 100 100 100 100 100 100 100 100 100 100 100 100 100 100 100 100 100 100 100 100 100 100
86 100 100 100 100 98 99 100 100 100 100 100 100 100 100 100 100 100 100 100 100 100 100 100 100 100 100 100 100 100 100 100 100 100 100 100 100 100 100 100 100 100 100
100 97 94 100 97 97 99 97 100 100 100 100 100 100 100 97 100 100 100 100 100 100 100 100 100 100 100 100 100 100 100 100 100 100 100 100 100 100 100 100 100 100 100
100 100 100 100 100 100 98 96 95 100 100 97 100 100 99 100 100 100 100 100 96 100 100 99 100 100 100 100 100 100 100 100 100 100 100 100 100 100 100 100 100 100 100
100 100 100 96 96 56 99 80 98 100 100 100 100 100 100 99 100 100 100 100 100 100 100 100 100 100 100 100 100 100 100 100 100 100 100 100 100 100 100 100 100 100 100
81 81 88 79 90 97 99 92 100 100 100 100 100 100 100 93 73 99 99 100 100 100 100 100 100 100 100 100 100 100 100 100 100 100 98 100 100 100 100 100 100 100 100

GFSMW_prec_cloud_105.txt.gz
Cloud_Cover
98 97 39 26 46 5 5 1 2 5 2 5 28 65 100 92 100 100 100 100 100 100 100 100 100 100 100 100 100 100 100 100 98 100 100 100 100 100 100 100 100 100 100
93 66 16 9 5 2 4 5 0 0 0 1 2 5 4 96 92 100 100 100 100 100 100 100 100 100 100 100 100 100 100 100 100 100 100 100 100 100 100 100 100 100 100
5 14 10 78 100 100 90 4 3 30 4 0 0 3 9 83 100 100 100 100 100 100 100 100 100 100 100 100 100 100 100 100 100 100 100 100 100 100 100 100 100 100 100
5 8 21 100 92 100 100 96 12 56 29 25 10 38 12 74 95 100 100 100 100 100 100 100 100 100 100 100 100 100 96 87 100 100 100 100 100 100 100 100 100 100 100
5 2 10 100 100 100 100 100 100 100 76 66 21 92 85 25 16 99 84 100 100 100 100 100 100 100 100 100 100 100 100 100 100 100 100 99 100 100 100 100 100 100 100
11 26 95 100 100 100 100 100 100 100 100 100 70 33 92 45 88 88 84 100 100 100 100 100 100 100 100 100 97 100 100 100 100 100 100 100 96 100 100 100 100 100 100
92 95 80 100 58 22 54 100 100 100 100 100 100 31 17 100 96 91 50 99 100 100 100 100 100 100 100 100 100 100 100 100 100 100 100 100 100 100 100 100 100 100 100
32 50 47 26 97 84 98 100 100 100 100 100 100 60 0 98 100 77 71 64 82 88 100 100 100 100 100 100 100 100 78 98 100 100 100 100 100 100 100 100 100 100 100
77 96 50 51 98 89 100 100 100 100 100 100 100 100 86 88 100 100 91 100 100 100 100 100 100 100 100 100 100 100 100 94 69 100 100 100 100 100 100 100 100 100 100
30 53 54 88 100 82 100 100 100 100 100 100 100 99 95 100 100 100 100 100 100 100 100 100 100 100 100 100 100 100 99 90 71 100 100 100 100 100 100 100 88 82 100
39 66 73 100 100 100 100 100 100 100 100 100 100 100 100 100 100 100 100 100 100 100 100 100 100 100 100 100 100 100 99 91 100 97 100 100 100 99 100 100 96 99 100
37 82 100 100 100 100 100 100 100 100 100 100 100 100 100 100 100 100 100 100 100 100 100 100 100 100 100 100 100 100 100 100 100 100 100 83 97 100 100 100 100 98 100
100 100 100 100 100 100 100 100 100 100 100 100 100 100 100 100 100 100 100 100 100 100 100 100 100 100 100 100 100 100 100 98 91 69 96 75 99 100 100 100 100 100 100
100 100 100 100 100 100 100 100 100 100 100 100 100 100 100 100 100 100 100 100 100 100 100 100 100 100 100 100 100 100 100 99 100 100 100 100 100 100 100 100 100 100 100
100 100 100 100 100 100 100 100 100 100 100 100 100 100 100 100 100 100 100 100 100 100 100 100 95 99 100 100 100 100 88 100 100 94 100 100 100 100 100 100 100 100 100
100 100 100 100 100 100 100 100 100 100 100 100 100 100 100 100 100 100 100 100 100 100 100 100 100 100 100 100 100 100 100 100 100 100 100 100 100 100 100 100 100 100 100
100 100 100 100 100 100 100 100 100 100 100 100 100 100 100 100 100 100 100 100 100 100 100 100 100 100 100 100 100 100 100 100 100 100 100 100 100 100 100 100 100 100 100
100 100 100 100 100 100 100 100 100 100 100 100 100 100 100 100 100 100 100 100 100 100 100 100 100 100 100 100 100 100 100 100 100 100 100 100 100 100 100 100 100 100 100
100 100 100 100 100 100 100 100 100 100 100 100 100 100 100 100 100 100 100 100 100 100 100 100 100 100 100 100 100 100 100 100 100 100 100 100 100 100 100 100 100 100 100
100 100 100 100 100 100 100 100 100 100 100 100 100 100 100 100 100 100 100 100 100 100 100 100 100 100 100 100 100 100 100 100 100 100 100 100 100 100 100 100 100 100 100
100 100 100 100 100 100 100 100 100 100 100 100 100 100 100 100 100 100 100 100 100 100 100 100 100 100 100 100 100 100 100 100 100 100 100 100 100 100 100 100 100 100 100
100 100 100 100 100 100 100 100 100 100 100 100 100 100 100 100 100 100 100 100 100 100 100 100 100 100 100 100 100 100 100 100 100 100 100 100 100 100 100 100 100 100 100
100 100 100 100 100 100 100 100 100 100 100 100 100 100 100 100 100 100 100 100 100 100 100 100 100 100 100 100 100 100 100 100 100 100 100 100 100 100 100 100 100 100 100
100 100 100 95 92 81 81 90 89 100 100 100 100 100 100 100 100 100 100 100 100 100 100 100 100 100 100 100 100 100 100 100 100 100 100 100 100 100 100 100 100 100 100
100 100 98 83 87 9 12 66 56 62 96 99 100 100 100 100 100 100 100 100 100 100 100 100 100 100 100 100 100 100 100 100 100 100 100 100 100 100 100 100 100 100 100
99 73 99 90 100 50 78 62 52 67 95 98 90 65 91 100 100 100 100 100 100 100 100 100 100 100 100 100 100 100 100 100 100 100 100 100 100 100 100 99 100 100 100

GFSMW_prec_cloud_108.txt.gz
Cloud_Cover
6 73 100 100 100 100 100 100 100 100 98 83 100 100 68 5 5 5 5 57 98 100 99 100 100 100 100 100 100 100 100 100 100 100 100 100 91 100 90 69 100 100 100
88 99 99 98 100 100 100 100 100 98 47 64 98 89 12 4 5 5 9 99 90 100 98 100 97 100 100 100 100 100 100 100 100 100 100 100 100 92 91 100 100 100 100
5 4 5 10 53 46 38 5 5 5 5 9 4 4 5 5 5 47 57 90 98 46 58 85 96 100 100 100 100 100 100 100 100 97 70 98 100 100 96 100 100 100 80
0 0 2 5 5 11 5 0 2 4 5 29 95 99 35 88 78 88 92 8 100 100 100 100 100 100 100 100 100 100 100 100 100 100 92 78 88 100 52 100 100 100 100
0 0 0 0 0 1 4 74 100 100 100 100 100 99 56 25 69 8 96 100 100 100 100 100 100 100 100 100 100 100 97 100 100 99 100 96 77 92 100 77 100 100 97
4 2 4 22 28 37 79 100 100 100 100 100 100 100 100 100 100 100 100 100 100 100 100 100 100 100 100 99 100 100 100 100 100 98 70 67 97 99 76 96 90 100 100
49 48 9 5 33 97 100 100 85 71 74 97 100 100 100 100 100 100 100 100 100 100 100 100 100 100 85 100 100 100 100 100 100 100 75 87 60 34 41 98 94 80 100
100 99 50 14 5 31 79 92 79 83 92 100 100 100 100 100 56 16 100 100 100 100 100 100 100 100 100 100 100 100 100 100 100 100 100 64 84 98 100 74 100 98 100
6 6 57 20 22 51 91 83 94 100 100 100 100 100 100 100 73 16 40 100 100 100 100 100 100 100 100 100 100 100 100 100 100 100 83 95 100 100 64 68 99 100 100
7 5 5 13 62 75 90 78 100 100 100 100 100 100 100 100 46 97 61 100 100 100 100 100 100 100 100 100 100 100 100 100 100 100 96 91 100 100 100 95 46 100 100
5 5 11 39 76 95 93 100 100 100 100 100 100 100 100 100 99 41 14 100 100 99 100 97 99 100 100 100 100 100 100 100 100 100 91 64 56 81 96 96 61 87 100
28 27 27 39 57 68 100 93 100 100 100 100 100 100 100 100 100 99 100 100 100 100 100 100 100 100 100 100 100 100 100 100 100 96 56 98 68 92 99 98 98 48 50
38 23 29 68 44 100 100 100 100 100 100 100 100 100 100 100 100 100 100 100 100 100 100 100 100 100 100 100 100 100 100 100 100 95 100 93 100 84 98 89 69 100 98
51 37 80 97 100 100 100 100 100 100 100 100 100 100 100 100 100 100 100 100 100 100 100 100 100 100 100 100 100 100 100 100 100 100 100 81 99 83 100 100 100 100 100
67 100 99 100 100 100 100 100 100 100 100 100 100 100 100 100 100 100 100 100 100 100 100 100 100 100 100 100 100 100 100 100 100 100 83 95 99 94 100 100 100 100 100
100 100 100 100 100 100 100 100 100 100 100 100 100 100 100 100 100 100 100 100 100 100 100 100 100 100 100 100 100 100 100 100 100 100 100 100 100 100 100 100 100 100 100
100 100 100 100 100 100 100 100 100 100 100 100 100 100 100 100 100 100 100 100 100 100 100 100 100 100 100 100 100 100 100 100 100 100 100 100 100 100 100 100 100 100 100
100 100 100 100 100 100 100 100 100 100 100 100 100 100 100 100 100 100 100 100 100 100 100 100 100 100 100 100 100 100 100 100 100 100 100 100 100 100 100 100 100 100 100
100 100 100 100 100 100 100 100 100 100 100 100 100 100 100 100 100 100 100 100 100 100 100 100 100 100 100 100 100 100 100 100 100 100 100 100 100 100 100 100 100 100 100
100 100 100 100 100 100 100 100 100 100 100 100 100 100 100 100 100 100 100 100 100 100 100 100 100 100 100 100 100 100 100 100 100 100 100 100 100 100 100 100 100 100 100
100 100 100 100 100 100 100 100 100 100 100 100 100 100 100 100 100 100 100 100 100 100 100 100 100 100 100 100 100 100 100 100 100 100 100 100 100 100 100 100 100 100 100
100 100 100 100 100 100 100 100 100 100 100 100 100 100 100 100 100 100 100 100 100 100 100 100 100 100 100 100 100 100 100 100 100 100 100 100 100 100 100 100 100 100 100
100 100 100 100 100 100 100 100 100 100 100 100 100 100 100 100 100 100 100 100 100 100 100 100 100 100 100 100 100 100 100 100 100 100 100 100 100 100 100 100 100 100 100
100 100 100 100 100 100 100 100 100 100 100 100 100 100 100 100 100 100 100 100 100 100 100 100 100 100 100 100 100 100 100 100 100 100 100 100 100 100 100 100 100 100 100
100 100 100 100 100 100 32 100 97 100 100 100 100 100 100 100 100 100 100 100 100 100 100 100 100 100 100 100 100 100 100 100 100 100 100 100 100 100 100 100 100 100 100
100 100 100 94 96 94 85 23 55 70 88 89 100 100 100 100 100 100 100 100 100 100 100 100 100 100 100 100 100 100 100 100 100 100 100 100 100 100 100 100 100 100 100

GFSMW_prec_cloud_111.txt.gz
Cloud_Cover
19 5 5 5 5 5 31 62 100 100 100 100 100 100 100 100 100 100 100 100 100 100 100 48 24 60 100 58 16 100 100 100 100 100 100 100 82 82 91 77 40 95 91
14 22 5 5 5 5 6 66 23 16 61 58 88 96 100 100 100 100 100 100 100 100 93 80 43 48 100 100 68 100 100 100 100 100 100 100 73 11 98 84 34 100 99
21 50 9 5 18 16 36 5 12 24 11 5 5 10 25 18 38 65 99 100 100 90 100 90 100 29 100 100 71 100 100 100 100 100 100 100 82 89 33 79 17 91 100
88 30 17 37 32 5 5 5 4 4 5 5 24 69 26 16 32 10 3 10 24 15 99 100 100 82 85 100 85 100 100 100 100 100 100 100 100 75 10 10 44 100 100
30 5 5 5 4 3 0 0 0 0 0 0 20 24 11 1 5 4 4 99 100 98 100 100 100 100 98 54 57 100 100 100 100 100 100 100 100 41 7 1 52 73 100
0 0 0 0 0 0 0 0 0 0 4 46 67 96 100 87 41 84 61 85 100 100 100 100 100 100 100 77 69 34 50 99 100 99 100 100 100 100 71 21 10 10 100
6 5 5 1 0 0 0 0 0 7 38 71 78 89 90 100 100 94 100 100 71 96 100 100 100 100 100 100 100 42 80 100 100 99 100 100 100 27 42 36 15 43 89
78 13 5 2 0 0 0 1 26 41 55 89 100 96 100 100 100 98 30 0 5 16 100 100 100 100 100 100 92 75 62 100 100 100 98 100 90 99 79 100 46 12 70
100 84 41 5 1 0 26 83 100 89 100 100 100 100 100 100 100 100 98 15 0 0 65 12 100 100 100 100 100 84 46 100 100 100 100 100 100 100 88 87 12 96 89
100 86 67 20 5 6 62 93 100 100 100 100 96 100 100 100 100 100 100 48 0 0 42 77 66 100 100 100 100 100 48 100 100 100 100 100 100 100 97 78 60 68 96
50 7 5 6 13 26 80 94 78 100 98 100 97 100 100 100 100 100 100 100 84 65 1 45 77 100 100 100 100 100 100 100 100 100 100 100 100 100 99 46 31 18 82
91 26 6 29 40 66 98 100 99 100 96 100 100 100 100 100 100 100 100 100 100 100 95 41 95 100 100 100 100 100 100 100 100 100 100 100 100 100 100 62 53 28 35
42 6 22 47 43 97 100 100 100 100 100 100 100 100 100 100 100 100 100 100 100 100 99 50 42 98 100 100 100 100 90 100 100 100 100 100 100 100 38 96 37 70 31
36 64 60 62 69 100 100 100 99 100 100 100 100 100 100 100 100 100 100 100 100 100 99 87 100 100 100 100 100 100 100 100 100 100 100 100 100 100 100 100 78 79 86
90 83 81 62 100 100 100 100 100 100 100 100 100 100 100 100 100 100 100 100 100 100 100 100 100 100 100 100 100 100 100 100 100 100 100 100 100 100 100 85 72 100 100
100 89 76 94 100 100 100 100 100 100 100 100 100 100 100 100 100 100 100 100 100 100 100 100 100 100 100 100 100 100 100 100 100 100 100 100 100 100 91 100 100 100 100
100 98 100 100 100 100 100 100 100 100 100 100 100 100 100 100 100 100 100 100 100 100 100 100 100 100 100 100 100 100 100 100 100 100 100 100 100 100 100 100 100 100 100
100 100 100 100 100 100 100 100 100 100 100 100 100 100 100 100 100 100 100 100 100 100 100 100 100 100 100 100 100 100 100 100 100 100 100 100 100 100 100 100 100 100 100
100 100 100 100 100 100 100 100 100 100 100 100 100 100 100 100 100 100 100 100 100 100 100 100 100 100 100 100 100 100 100 100 100 100 100 100 100 100 100 100 100 100 100
100 100 100 100 100 100 100 100 100 100 100 100 100 100 100 100 100 100 100 100 100 100 100 100 100 100 100 100 100 100 100 100 100 100 100 100 100 100 100 100 100 100 100
100 100 100 100 100 100 100 100 100 100 100 100 100 100 100 100 100 100 100 100 100 100 100 100 100 100 100 100 100 100 100 100 100 100 100 100 100 100 100 100 100 100 100
100 100 100 100 100 100 100 100 100 100 100 100 100 100 100 100 100 100 100 100 100 100 100 100 100 100 100 100 100 100 100 100 100 100 100 100 100 100 100 100 100 100 100
100 100 100 100 100 100 100 100 100 100 100 100 100 100 100 100 100 100 100 100 100 100 100 100 100 100 100 100 100 100 100 100 100 100 100 100 100 100 100 100 100 100 100
100 100 100 100 100 100 100 100 100 100 100 100 100 100 100 100 100 100 100 100 100 100 100 100 100 100 100 100 100 100 100 100 100 100 100 100 100 100 100 100 100 100 100
100 100 100 100 100 100 100 97 93 100 100 100 100 100 100 100 100 100 100 100 100 100 100 100 100 100 100 100 100 100 100 100 100 100 100 100 100 100 100 100 100 100 100
100 100 100 100 100 100 100 100 100 100 89 100 100 100 100 100 100 100 100 100 100 100 100 100 100 100 100 100 100 100 100 100 100 100 100 100 100 100 100 100 100 100 100

GFSMW_prec_cloud_114.txt.gz
Cloud_Cover
5 0 0 5 43 99 7 5 5 41 76 54 100 93 100 100 100 100 100 100 100 100 100 100 100 100 21 5 5 5 5 5 5 3 13 61 100 100 58 20 21 17 65
1 0 0 0 0 1 88 100 90 5 5 5 5 5 5 5 5 37 87 100 100 100 100 100 91 100 19 16 82 80 55 5 5 23 19 100 88 100 100 100 5 5 12
4 2 1 0 5 4 5 6 100 98 50 3 1 0 5 5 5 4 5 12 59 93 26 91 40 91 100 100 98 52 40 65 31 75 22 99 100 99 100 100 30 5 4
0 0 0 0 0 16 51 8 35 90 100 95 26 35 45 8 12 5 5 24 75 12 7 99 44 36 88 66 86 99 50 100 48 98 100 90 100 100 100 100 100 94 12
0 0 0 0 0 0 83 88 74 68 47 38 24 36 29 5 0 0 0 0 0 16 100 11 9 100 81 39 85 100 98 100 100 12 6 100 94 100 100 88 100 100 10
5 1 0 0 0 0 0 6 83 97 59 12 44 14 78 100 61 17 2 0 0 0 14 91 56 16 34 96 100 100 100 100 100 66 62 92 72 100 100 100 98 40 60
3 5 0 0 0 0 0 0 0 0 3 15 49 93 100 100 100 99 68 30 4 4 3 1 93 100 95 91 100 96 100 100 100 100 18 93 46 83 96 53 6 58 14
77 10 5 5 5 0 0 0 0 7 25 97 99 100 100 100 100 97 94 70 48 1 3 20 7 98 100 100 70 96 100 100 82 88 10 82 75 100 100 100 48 5 12
97 85 76 5 5 8 15 5 6 6 44 100 100 98 100 100 100 100 100 100 91 36 0 3 20 53 100 99 8 5 100 100 98 70 7 96 100 100 100 100 100 95 51
52 31 84 44 88 90 82 8 50 70 61 100 92 99 100 100 100 100 100 100 100 96 63 3 55 57 73 72 44 70 100 100 100 99 9 100 100 100 100 100 100 100 96
100 100 98 72 100 100 100 100 38 39 41 100 100 100 100 100 100 100 100 100 100 100 100 37 7 33 65 97 92 78 100 99 98 100 64 100 100 100 100 100 100 100 100
100 100 100 100 100 100 95 75 39 41 79 100 100 100 100 100 100 100 100 100 100 100 100 91 35 26 98 97 100 100 100 90 100 100 100 100 100 100 100 100 100 100 99
100 100 100 100 100 100 82 43 79 48 53 100 100 100 100 100 100 100 100 100 100 96 100 100 100 100 100 100 100 87 100 100 100 100 100 100 100 100 100 100 100 100 99
100 100 100 100 95 100 100 36 87 67 63 100 100 100 100 100 100 100 100 100 100 100 100 80 100 100 100 100 100 100 100 100 100 100 100 100 100 100 100 100 100 100 93
91 100 100 100 100 100 56 75 76 100 100 100 100 100 100 100 100 100 100 100 100 100 100 100 100 100 100 100 100 100 100 82 100 100 83 100 100 100 100 100 100 96 100
100 100 100 88 100 82 100 100 100 100 100 100 100 100 100 100 100 100 100 100 100 100 100 100 100 100 100 100 100 100 100 100 100 100 100 100 100 100 95 100 100 100 100
100 100 95 97 100 100 100 100 100 100 100 100 100 100 100 100 100 100 100 100 100 100 100 100 100 100 100 100 100 100 100 100 100 100 100 100 100 100 100 100 100 100 100
98 94 99 100 100 100 100 100 100 100 100 100 100 100 100 100 100 100 100 100 100 100 100 100 100 100 100 100 100 100 100 100 100 100 100 100 100 100 97 100 100 100 100
96 100 100 100 100 100 100 100 100 100 100 100 100 100 100 100 100 100 100 100 100 100 100 100 100 100 100 100 100 100 100 100 100 100 100 100 100 100 100 100 100 100 100
100 100 100 100 100 100 100 100 100 100 100 100 100 100 100 100 100 100 100 100 100 100 100 100 100 100 100 100 100 100 100 100 100 100 100 100 100 100 100 100 100 100 100
100 100 100 100 100 100 100 100 100 100 100 100 100 100 100 100 100 100 100 100 100 100 100 100 100 100 100 100 100 100 100 100 100 100 100 100 100 100 100 100 100 100 100
100 100 100 100 100 100 100 100 100 100 100 100 100 100 100 100 100 100 100 100 100 100 100 100 100 100 100 100 100 100 100 100 100 100 100 100 100 100 100 100 100 100 100
100 100 100 100 100 100 100 100 100 100 100 100 100 100 100 100 100 100 100 100 100 100 100 100 100 100 100 100 100 100 100 100 100 100 100 100 100 100 100 100 100 100 100
100 100 100 100 100 100 100 100 100 100 100 100 100 100 100 100 100 100 100 100 100 100 100 100 100 100 100 100 100 100 100 100 100 100 100 100 100 100 100 100 100 100 100
100 100 100 100 100 100 100 100 100 100 100 100 100 100 100 100 100 100 100 100 100 100 100 100 100 100 100 100 100 100 100 100 100 100 100 100 100 100 100 100 100 100 100
100 100 100 100 100 100 100 100 100 100 100 100 79 65 100 100 100 100 100 100 100 100 100 100 100 100 100 100 100 100 100 100 100 100 100 100 100 100 100 100 100 100 100

GFSMW_prec_cloud_117.txt.gz
Cloud_Cover
6 0 0 0 0 4 6 0 5 5 5 5 5 12 78 100 100 96 100 100 100 100 100 54 100 100 100 100 100 77 83 81 45 5 55 21 13 0 4 5 5 43 100
38 6 1 0 0 1 1 0 0 0 2 5 2 2 5 28 5 26 42 62 36 16 74 100 96 100 92 100 100 100 100 100 53 7 5 16 72 5 5 27 8 40 100
92 59 0 0 0 0 0 0 0 0 2 0 0 0 3 57 79 21 5 2 2 5 4 4 10 64 99 100 100 100 100 100 85 50 45 54 66 23 20 14 7 21 92
100 35 0 0 0 0 0 0 0 0 0 0 2 1 0 0 5 5 5 0 0 0 0 0 22 5 13 100 100 100 100 98 100 93 87 16 5 0 5 11 51 94 80
99 32 10 0 0 0 0 0 0 0 0 0 0 0 5 5 5 5 18 34 5 4 5 5 0 0 0 2 44 100 100 100 100 99 65 9 14 15 4 30 40 100 54
94 100 100 38 15 5 0 0 0 0 0 0 0 0 0 27 48 14 9 5 4 3 5 5 0 0 0 0 0 6 92 100 48 27 90 15 38 98 47 5 5 86 53
100 100 100 93 43 5 1 0 1 0 0 0 0 4 72 86 100 90 91 74 43 6 2 0 1 30 0 8 0 7 82 100 73 99 100 83 76 95 30 5 22 99 99
100 100 100 80 36 46 20 4 3 5 5 5 5 5 78 100 100 100 100 100 100 74 33 8 0 0 13 39 24 5 98 100 98 100 100 100 100 95 97 5 90 75 82
100 100 100 100 91 91 71 6 5 5 5 5 18 34 31 66 100 100 100 100 100 100 100 70 42 16 0 15 50 0 26 100 100 100 100 100 100 96 22 5 5 85 93
100 95 99 100 100 100 78 65 81 95 71 27 44 56 52 75 96 100 100 100 100 100 100 100 100 100 53 1 22 0 0 27 100 100 100 100 100 100 99 4 20 97 88
18 87 99 100 100 100 100 100 100 92 98 100 96 69 90 95 95 100 100 100 100 100 100 100 100 100 100 9 98 28 0 6 100 100 100 100 100 100 100 29 70 100 100
100 100 100 100 100 100 100 100 100 100 100 100 100 96 100 100 100 100 100 100 100 100 100 100 100 100 100 57 98 72 0 5 44 100 98 86 81 100 100 55 100 100 100
100 100 56 98 100 100 100 100 100 100 100 100 99 98 100 100 100 100 100 100 100 100 100 100 100 100 100 80 38 100 27 100 100 67 24 50 70 100 100 100 100 100 100
100 100 100 100 100 100 100 100 100 100 100 100 100 100 100 100 100 100 100 100 100 100 100 100 100 100 100 100 57 74 41 91 100 86 29 21 100 100 100 100 100 100 100
100 100 100 100 100 100 82 83 100 98 100 95 97 100 100 100 100 100 100 100 100 100 100 100 100 100 100 100 100 100 100 100 90 88 100 100 100 100 100 100 100 100 100
100 100 100 100 100 100 100 100 100 81 100 100 100 100 100 100 100 100 100 100 100 100 100 100 100 100 100 100 100 100 100 100 100 100 100 100 100 100 100 100 100 100 100
100 100 100 96 84 90 92 86 87 95 100 100 100 100 100 100 100 100 100 100 100 100 100 100 100 100 100 100 100 100 100 100 100 100 100 100 100 100 100 100 100 100 100
100 92 75 74 98 99 88 96 98 100 100 100 100 100 100 100 100 100 100 100 100 100 100 100 100 100 100 100 100 100 100 100 100 100 100 100 100 100 100 100 100 100 100
83 90 92 100 100 100 100 100 100 100 100 100 100 100 100 100 100 100 100 100 100 100 100 100 100 100 100 100 100 100 100 100 100 100 100 100 100 100 100 100 100 100 100
76 99 100 100 100 100 100 100 100 100 100 100 100 100 100 100 100 100 100 100 100 100 100 100 100 100 100 100 100 100 100 100 100 100 100 100 100 100 100 100 100 100 100
100 100 100 100 100 100 100 100 100 100 100 100 100 100 100 100 100 100 100 100 100 100 100 100 100 100 100 100 100 100 100 100 100 100 100 100 100 100 100 100 100 100 100
100 100 100 100 100 100 100 100 100 100 100 100 100 100 100 100 100 100 100 100 100 100 100 100 100 100 100 100 100 100 100 100 100 100 100 100 100 100 100 100 100 100 100
100 100 100 100 100 100 100 100 100 100 100 100 100 100 100 100 100 100 100 100 100 100 100 100 100 100 100 100 100 100 100 100 100 100 100 100 100 100 100 100 100 100 100
100 100 100 100 100 100 100 100 100 100 100 100 100 100 100 100 100 100 100 100 100 100 100 100 100 100 100 100 100 100 100 100 100 100 100 100 100 100 100 100 100 100 100
100 100 100 100 100 100 100 100 100 100 100 100 100 100 100 100 100 100 100 100 100 100 100 100 100 100 100 100 100 100 100 100 100 100 100 100 100 100 100 100 100 100 100
100 100 100 100 100 100 100 100 100 100 100 100 100 100 100 100 100 100 100 100 100 100 100 100 100 100 100 100 100 100 100 100 100 100 100 100 100 100 100 100 100 100 100